Wind_Speed
48 68 71 70 67 64 58 53 50 43 45 45 51 58 51 29 39 32 20 15 10 10 23 21 24 24 21 19 20 23 22 20 14 13 5 21 19 17 17 11 6 5 3 9
54 45 63 69 63 67 63 57 46 30 49 53 58 53 45 45 41 42 32 21 9 11 17 27 22 24 24 22 22 25 21 10 8 7 13 18 18 16 19 16 14 14 7 8
57 50 54 56 54 53 64 54 38 36 51 58 54 58 51 49 45 44 38 30 21 18 15 13 17 22 23 22 17 25 23 21 15 18 15 14 11 13 13 11 8 13 16 16
57 50 50 49 54 51 54 50 43 55 59 65 62 49 47 39 47 50 37 33 28 18 13 20 13 17 26 24 22 27 25 20 16 12 13 11 8 8 10 13 10 5 11 22
53 50 46 52 61 56 53 57 45 53 51 61 60 53 57 50 50 45 47 39 28 18 19 18 12 16 24 25 25 22 20 18 20 21 21 20 18 15 15 16 16 19 17 14
48 40 58 57 66 60 61 58 48 46 59 39 56 69 59 55 46 50 43 34 27 23 22 17 15 16 16 22 23 23 21 21 23 20 20 17 19 24 23 21 22 22 20 14
45 51 62 53 70 61 61 62 51 47 45 50 54 55 63 51 48 47 40 36 31 24 14 20 22 18 17 19 21 17 15 20 19 10 12 1 13 16 13 15 11 10 14 15
47 63 50 60 70 64 60 59 59 44 49 48 51 34 42 46 46 43 42 41 31 25 22 21 20 20 19 26 23 20 19 19 11 8 16 8 8 10 13 14 13 13 12 13
47 47 57 62 69 62 62 61 55 39 45 52 39 45 34 45 46 42 43 43 31 26 29 29 23 18 20 19 21 22 19 19 22 12 6 7 15 18 24 18 16 17 14 11
40 44 51 65 65 64 62 69 59 46 30 30 36 47 33 26 41 45 44 46 39 33 35 29 21 22 22 19 26 23 25 25 24 23 14 12 15 11 14 17 15 20 17 16
38 40 48 70 65 60 60 73 54 52 36 29 29 31 41 31 39 49 47 43 41 38 33 34 19 14 26 24 23 26 26 25 21 20 14 13 17 21 24 18 18 17 15 12
33 37 40 59 58 57 59 75 63 42 29 33 30 35 39 45 42 47 45 45 37 29 34 24 26 21 22 23 21 22 20 22 21 17 12 14 13 20 20 20 15 11 12 12
36 38 49 56 54 49 58 77 69 48 30 26 32 34 40 40 42 45 42 45 41 35 36 35 20 23 25 25 24 21 22 16 16 17 14 13 14 14 14 15 14 13 15 16
41 46 48 48 48 47 50 73 74 54 35 26 13 27 28 39 37 40 43 38 37 39 36 40 35 20 24 24 20 25 24 21 20 21 17 18 17 18 18 19 19 20 20 20
39 38 45 53 42 45 43 67 62 55 42 10 23 25 27 33 32 33 37 35 36 34 33 41 26 26 22 25 26 24 24 24 27 27 23 22 21 22 23 23 22 23 24 24
32 34 34 29 34 28 47 65 51 56 39 18 12 21 28 33 36 36 42 45 32 35 31 29 29 30 22 22 25 23 23 24 23 22 20 20 22 23 24 24 24 24 25 24
32 34 29 31 32 35 60 55 52 52 38 30 18 19 30 42 36 41 46 39 47 41 33 29 31 26 24 21 24 21 21 19 19 19 20 22 23 24 25 26 26 26 25 24
32 27 27 27 24 45 58 41 39 57 40 28 16 15 16 32 39 41 39 26 28 34 27 29 27 23 26 19 24 19 17 16 17 20 20 22 23 24 25 25 25 25 23 21
26 24 22 22 30 50 50 40 16 10 20 12 13 18 21 35 30 33 29 29 30 22 28 26 25 27 20 23 21 21 21 19 19 21 23 24 25 25 25 25 25 22 21 19
38 33 32 29 52 55 33 25 8 11 7 6 13 22 20 28 29 28 30 23 20 17 24 30 26 29 28 24 22 21 21 22 22 25 25 24 24 23 22 22 22 21 18 15
35 32 36 34 19 35 29 7 8 7 5 7 12 18 18 26 30 29 23 16 17 14 18 23 24 27 27 25 24 25 25 25 27 27 26 24 23 22 21 20 19 17 15 13
24 30 29 19 10 7 6 11 10 7 8 12 12 14 18 20 26 17 20 16 11 8 16 19 12 20 24 25 27 28 28 28 26 25 26 24 22 20 16 15 15 13 12 10
35 28 18 9 6 5 8 8 10 9 17 19 16 18 18 18 17 12 11 9 12 7 12 8 15 18 21 22 25 27 26 25 23 22 19 16 14 15 15 15 13 9 9 10
16 9 9 5 4 5 7 10 12 12 18 16 18 17 14 19 20 8 7 9 10 11 10 13 13 16 18 21 20 19 18 19 17 14 13 15 16 17 14 11 9 9 9 11
6 6 5 5 8 10 12 12 12 13 15 20 20 16 11 10 5 7 6 10 7 9 11 10 14 16 15 15 14 13 12 12 10 13 17 17 15 12 10 8 8 8 10 13
6 6 12 11 10 12 11 14 14 14 12 15 16 13 6 9 6 7 6 6 6 8 8 9 9 9 10 10 10 8 8 10 11 12 12 12 11 10 8 7 8 10 13 16
5 10 11 10 9 10 11 14 16 13 13 17 10 9 7 6 6 7 7 7 7 8 7 7 7 7 7 6 8 10 8 8 10 12 13 10 6 6 8 9 12 15 17 18
Wind_Direction
223 219 212 215 215 218 216 217 217 214 193 205 214 218 216 203 209 215 216 212 220 228 220 217 212 226 233 233 236 229 240 219 198 224 227 235 246 249 258 228 227 230 230 247
220 225 205 210 210 213 214 212 208 205 198 208 217 219 219 220 215 213 220 230 219 208 225 221 225 225 233 233 244 224 194 203 185 221 217 220 235 227 234 247 237 243 208 253
221 227 203 201 203 204 208 197 183 190 203 216 219 219 225 223 216 224 219 223 224 206 221 207 223 218 223 230 237 203 228 221 216 204 220 210 241 249 258 238 242 243 235 261
218 223 212 196 187 192 197 184 197 195 199 211 214 221 225 219 220 223 218 222 219 212 234 220 218 220 223 229 217 199 200 209 213 211 206 236 246 236 223 245 259 292 291 263
218 219 218 190 185 187 195 185 195 201 210 212 211 214 223 224 221 222 219 220 212 211 227 227 228 222 214 210 205 214 221 226 230 236 240 241 262 254 247 250 251 267 271 271
215 226 194 190 182 185 196 187 189 202 202 208 213 219 218 221 220 225 218 215 211 215 208 224 237 243 230 233 229 224 227 235 232 233 237 242 255 252 258 269 266 264 259 250
211 204 190 190 182 188 196 187 183 195 206 205 216 221 219 218 218 224 213 208 215 202 214 236 238 237 221 234 229 228 234 234 220 231 226 262 252 264 249 234 231 240 218 201
209 194 190 191 186 188 191 184 187 194 205 215 215 216 222 216 222 225 216 211 217 221 244 223 207 214 204 209 219 218 224 226 205 205 211 237 233 218 221 224 184 182 206 205
189 188 189 192 187 187 189 183 185 194 212 212 214 220 223 214 221 218 215 209 214 224 214 211 202 195 208 209 208 206 218 221 223 209 207 201 260 246 239 226 210 216 212 217
189 195 193 193 187 188 186 189 188 199 195 194 213 219 211 211 218 215 210 207 215 204 208 210 211 208 212 205 206 211 212 217 222 226 228 244 239 205 213 206 220 225 235 248
190 195 199 190 182 183 192 192 194 201 213 209 213 210 219 210 217 211 209 210 214 210 209 210 204 195 207 213 216 216 221 216 216 220 227 251 246 213 214 235 247 258 254 257
192 182 191 174 182 188 193 193 189 182 186 184 199 209 209 214 224 211 213 214 213 212 209 207 212 211 204 205 205 212 212 227 230 226 233 237 223 222 234 248 258 258 249 260
168 169 164 175 182 189 194 196 201 200 201 177 202 207 208 204 214 214 217 216 214 219 216 207 196 208 202 197 210 213 206 213 214 212 228 224 218 226 238 251 251 247 268 279
159 165 169 178 184 190 193 198 201 203 211 228 186 199 207 205 206 216 221 224 224 232 231 232 239 244 217 220 215 212 214 214 218 224 229 221 230 237 243 250 254 267 276 275
156 164 173 182 188 192 196 194 192 198 203 227 226 204 209 203 202 215 217 218 216 234 227 220 208 214 206 211 211 213 218 221 221 229 240 246 245 244 241 246 256 268 273 274
163 172 177 183 183 182 190 192 192 193 199 229 226 234 208 204 205 209 211 215 208 203 198 195 207 203 197 198 209 216 218 225 234 243 250 250 244 247 253 258 263 268 272 276
168 171 175 177 183 193 179 185 193 191 195 220 263 262 208 210 195 205 197 214 217 203 186 197 202 198 203 214 217 218 216 223 233 240 248 250 252 255 259 261 263 267 271 278
172 174 174 178 194 189 184 180 199 199 211 221 236 228 184 203 179 178 190 189 190 205 204 207 205 203 208 218 220 214 219 229 237 244 249 253 255 257 260 261 263 269 273 276
164 159 160 155 182 183 182 177 147 150 178 209 201 180 178 152 166 190 204 191 204 208 206 226 212 213 208 222 229 228 235 242 251 256 256 253 251 255 258 262 267 270 272 271
139 141 146 172 179 166 172 202 215 165 193 183 192 195 174 176 182 183 189 201 209 217 224 224 218 216 222 229 232 232 234 242 250 253 254 256 257 259 262 261 261 261 259 254
132 156 165 152 168 184 199 191 130 145 182 170 183 188 199 196 196 197 195 193 202 214 218 211 222 225 229 228 228 233 236 238 243 249 256 259 260 261 258 253 247 241 239 246
145 144 131 128 124 112 125 138 144 160 177 176 190 190 192 186 189 191 197 196 195 211 208 203 216 219 221 226 232 238 243 246 248 252 255 259 263 257 244 228 223 227 241 258
130 129 128 102 91 125 139 156 161 162 170 178 182 186 193 187 178 192 194 193 208 203 186 197 215 218 225 230 235 239 243 245 248 252 256 250 237 223 217 220 226 238 253 267
126 84 93 103 116 123 139 136 145 151 157 155 154 161 172 178 178 180 183 200 185 189 199 209 212 213 216 221 227 231 234 238 251 253 238 221 213 216 219 226 236 249 264 275
105 96 101 115 118 121 130 139 133 145 165 161 156 164 156 171 173 196 182 178 190 190 197 199 205 216 223 231 235 240 239 251 251 222 214 218 219 222 230 239 250 268 280 284
128 111 116 133 134 146 150 160 162 152 155 169 172 184 179 194 202 180 184 181 185 193 180 190 208 225 231 234 238 238 236 241 235 222 218 218 222 231 239 257 281 286 285 287
78 101 119 134 153 153 155 163 168 178 182 192 186 187 189 176 195 174 174 191 197 191 207 224 225 229 234 213 207 214 229 222 218 222 224 229 231 249 274 290 287 288 289 292
Height
2911 2921 2940 2954 2969 2983 2996 3007 3015 3024 3034 3041 3037 3033 3040 3051 3059 3063 3067 3069 3072 3074 3077 3078 3082 3084 3088 3090 3092 3095 3097 3099 3101 3102 3101 3102 3104 3105 3106 3105 3107 3105 3104 3104
2900 2910 2923 2939 2954 2968 2982 2993 3004 3016 3026 3024 3022 3029 3036 3043 3052 3057 3062 3065 3068 3070 3072 3075 3077 3080 3084 3086 3087 3089 3094 3096 3097 3099 3101 3099 3100 3101 3102 3101 3101 3101 3103 3101
2890 2901 2913 2925 2941 2955 2970 2982 2994 3005 3010 3012 3017 3024 3028 3033 3044 3049 3055 3059 3063 3065 3067 3070 3073 3075 3079 3082 3084 3086 3090 3091 3092 3094 3095 3096 3097 3097 3098 3097 3098 3097 3097 3097
2879 2890 2905 2917 2931 2947 2957 2968 2978 2982 2987 2994 3005 3016 3022 3027 3035 3041 3052 3054 3057 3061 3063 3066 3069 3072 3075 3079 3081 3083 3085 3086 3088 3091 3091 3092 3092 3093 3093 3093 3093 3094 3094 3092
2868 2879 2893 2907 2920 2938 2946 2955 2967 2976 2983 2992 3001 3006 3005 3015 3030 3035 3040 3046 3054 3056 3058 3064 3066 3068 3070 3073 3077 3079 3081 3082 3085 3086 3087 3087 3087 3089 3089 3089 3090 3089 3090 3089
2859 2871 2884 2896 2910 2925 2928 2946 2960 2971 2979 2984 2991 2984 2996 3006 3026 3028 3036 3046 3051 3051 3055 3061 3064 3066 3068 3071 3073 3075 3077 3079 3080 3080 3081 3082 3083 3083 3084 3084 3083 3083 3084 3084
2852 2866 2874 2887 2902 2913 2923 2939 2953 2962 2966 2974 2974 2986 2995 3004 3015 3024 3032 3041 3043 3049 3053 3057 3059 3061 3063 3066 3069 3069 3071 3074 3076 3076 3078 3080 3077 3077 3076 3077 3076 3076 3077 3078
2843 2856 2867 2881 2894 2907 2920 2936 2946 2953 2960 2969 2978 2983 2993 3004 3014 3019 3027 3035 3040 3043 3050 3052 3054 3056 3057 3061 3063 3065 3067 3070 3071 3072 3072 3072 3073 3073 3073 3074 3075 3074 3076 3076
2839 2852 2865 2876 2887 2901 2917 2931 2940 2951 2958 2962 2975 2983 2991 2996 3003 3018 3020 3028 3035 3039 3042 3045 3044 3048 3052 3056 3058 3061 3064 3066 3069 3068 3068 3069 3067 3069 3070 3071 3071 3071 3072 3074
2839 2849 2861 2871 2884 2899 2913 2922 2934 2944 2952 2964 2971 2976 2984 2996 3001 3008 3015 3020 3027 3032 3033 3038 3041 3043 3047 3050 3052 3056 3058 3061 3062 3063 3063 3062 3063 3065 3066 3068 3069 3067 3069 3070
2838 2847 2858 2869 2882 2898 2911 2921 2930 2939 2948 2959 2966 2974 2980 2991 2992 2997 3006 3017 3018 3023 3029 3032 3036 3037 3041 3045 3047 3049 3052 3055 3057 3058 3059 3058 3058 3060 3062 3062 3062 3064 3065 3066
2836 2846 2857 2870 2885 2897 2909 2918 2929 2941 2950 2957 2963 2967 2973 2978 2990 2996 3003 3008 3013 3017 3023 3028 3031 3033 3035 3037 3041 3043 3047 3049 3051 3054 3052 3051 3052 3054 3057 3058 3060 3061 3061 3061
2840 2847 2859 2874 2887 2898 2907 2917 2927 2939 2948 2955 2958 2964 2968 2974 2982 2992 3000 3003 3010 3013 3017 3021 3023 3028 3032 3032 3035 3038 3041 3043 3045 3047 3047 3048 3050 3052 3054 3055 3056 3056 3057 3056
2845 2853 2866 2877 2888 2897 2909 2917 2926 2940 2948 2950 2955 2960 2965 2971 2978 2987 2994 3003 3009 3011 3015 3017 3018 3027 3025 3026 3029 3032 3036 3038 3039 3041 3043 3045 3046 3048 3050 3051 3052 3052 3051 3051
2850 2860 2869 2878 2886 2896 2906 2917 2930 2940 2951 2951 2953 2958 2963 2969 2976 2982 2989 2996 3001 3002 3007 3009 3014 3023 3021 3022 3026 3025 3028 3031 3033 3034 3039 3041 3042 3042 3044 3046 3046 3046 3045 3045
2855 2864 2873 2881 2890 2899 2906 2919 2931 2941 2949 2954 2954 2957 2959 2964 2970 2975 2982 2989 2994 2998 3001 3004 3012 3014 3016 3018 3018 3020 3023 3027 3031 3033 3034 3036 3038 3038 3039 3040 3040 3039 3039 3037
2862 2871 2879 2887 2894 2899 2910 2925 2934 2945 2950 2952 2953 2952 2950 2955 2962 2969 2976 2976 2983 2993 2997 3004 3007 3009 3011 3011 3012 3015 3018 3023 3026 3029 3030 3032 3032 3032 3033 3033 3033 3032 3032 3030
2867 2875 2883 2891 2898 2904 2913 2927 2938 2942 2949 2953 2954 2947 2947 2945 2948 2963 2969 2974 2981 2988 2989 2999 3000 3002 3004 3005 3007 3010 3014 3018 3020 3023 3025 3026 3026 3026 3025 3025 3025 3025 3024 3024
2874 2882 2890 2895 2899 2906 2919 2932 2936 2937 2944 2946 2944 2944 2941 2947 2957 2963 2968 2975 2981 2985 2988 2993 2996 2994 2997 2999 3003 3007 3009 3011 3014 3016 3018 3019 3019 3019 3019 3018 3018 3017 3017 3017
2877 2885 2891 2897 2897 2912 2918 2926 2931 2934 2938 2938 2938 2941 2945 2951 2956 2962 2971 2975 2979 2981 2984 2989 2988 2989 2993 2996 2998 3001 3004 3005 3007 3009 3009 3011 3011 3012 3011 3011 3011 3010 3011 3011
2886 2892 2898 2906 2912 2919 2925 2926 2928 2933 2936 2936 2938 2941 2945 2951 2956 2961 2966 2970 2976 2978 2980 2983 2982 2984 2988 2991 2993 2994 2996 2998 3000 3001 3002 3002 3003 3004 3004 3004 3004 3005 3006 3006
2892 2897 2905 2910 2915 2919 2925 2928 2931 2933 2934 2934 2937 2940 2944 2949 2955 2960 2964 2968 2972 2972 2975 2977 2977 2979 2982 2985 2986 2988 2989 2991 2993 2993 2993 2995 2996 2995 2996 2997 2999 3000 3000 3001
2899 2905 2909 2912 2917 2920 2923 2925 2928 2929 2930 2933 2937 2941 2945 2950 2954 2958 2962 2964 2968 2970 2970 2970 2972 2974 2976 2978 2980 2981 2983 2984 2985 2985 2987 2987 2988 2990 2991 2993 2994 2994 2996 2997
2906 2909 2913 2917 2919 2921 2922 2924 2926 2929 2931 2934 2938 2942 2946 2948 2953 2957 2959 2962 2964 2964 2964 2965 2967 2969 2971 2973 2975 2977 2977 2978 2979 2980 2981 2983 2985 2986 2988 2989 2990 2991 2992 2992
2910 2912 2914 2916 2918 2919 2921 2925 2928 2931 2933 2937 2939 2943 2946 2949 2952 2954 2955 2957 2957 2958 2959 2960 2962 2964 2967 2968 2970 2971 2972 2974 2974 2977 2978 2980 2982 2984 2985 2985 2986 2987 2987 2987
2913 2916 2917 2919 2920 2922 2925 2927 2930 2933 2935 2938 2940 2942 2945 2948 2948 2949 2949 2952 2952 2954 2956 2958 2959 2961 2963 2964 2966 2968 2970 2971 2973 2974 2976 2978 2979 2980 2981 2982 2983 2983 2983 2982
2911 2915 2917 2920 2922 2924 2925 2927 2930 2932 2935 2937 2939 2941 2942 2944 2944 2946 2947 2949 2951 2953 2954 2956 2958 2960 2961 2963 2965 2968 2969 2970 2971 2973 2974 2975 2976 2976 2977 2978 2978 2977 2976 2975